H1 CPF 2 NER 2025 8 3 9 215 01 glonass141 H2 1908801 9141 44850 2025 8 3 0 0 0 2025 8 6 23 45 0 900 1 1 0 0 0 1 H9 10 0 60890 0.00000 0 -4897076.058 -10173437.451 22895913.113 10 0 60890 900.00000 0 -3121495.354 -12307550.224 22144737.283 10 0 60890 1800.00000 0 -1581409.405 -14473721.381 20964440.595 10 0 60890 2700.00000 0 -299990.147 -16606678.771 19377775.177 10 0 60890 3600.00000 0 712177.493 -18639394.037 17415368.672 10 0 60890 4500.00000 0 1457312.138 -20505763.019 15115145.381 10 0 60890 5400.00000 0 1950109.878 -22143269.108 12521605.707 10 0 60890 6300.00000 0 2216889.103 -23495518.967 9684976.372 10 0 60890 7200.00000 0 2294241.891 -24514544.652 6660246.661 10 0 60890 8100.00000 0 2227248.452 -25162775.287 3506108.355 10 0 60890 9000.00000 0 2067329.743 -25414594.736 283819.336 10 0 60890 9900.00000 0 1869829.017 -25257418.629 -2943987.239 10 0 60890 10800.00000 0 1691425.001 -24692244.057 -6114524.773 10 0 60890 11700.00000 0 1587486.941 -23733647.431 -9166081.721 10 0 60890 12600.00000 0 1609484.663 -22409229.282 -12039231.871 10 0 60890 13500.00000 0 1802564.771 -20758528.374 -14678001.790 10 0 60890 14400.00000 0 2203397.245 -18831450.103 -17030971.581 10 0 60890 15300.00000 0 2838385.317 -16686274.934 -19052286.447 10 0 60890 16200.00000 0 3722316.015 -14387330.548 -20702558.460 10 0 60890 17100.00000 0 4857510.019 -12002425.588 -21949640.356 10 0 60890 18000.00000 0 6233508.079 -9600153.004 -22769255.821 10 0 60890 18900.00000 0 7827308.369 -7247176.305 -23145473.871 10 0 60890 19800.00000 0 9604145.705 -5005612.540 -23071018.137 10 0 60890 20700.00000 0 11518780.433 -2930621.486 -22547405.233 10 0 60890 21600.00000 0 13517243.236 -1068301.546 -21584909.875 10 0 60890 22500.00000 0 15538962.767 546020.393 -20202357.820 10 0 60890 23400.00000 0 17519186.827 1889034.664 -18426751.118 10 0 60890 24300.00000 0 19391595.431 2950179.443 -16292733.480 10 0 60890 25200.00000 0 21090996.036 3731827.502 -13841906.632 10 0 60890 26100.00000 0 22555987.784 4248923.278 -11122011.568 10 0 60890 27000.00000 0 23731482.995 4528087.712 -8185991.192 10 0 60890 27900.00000 0 24570980.285 4606230.717 -5090953.179 10 0 60890 28800.00000 0 25038494.248 4528731.782 -1897053.880 10 0 60890 29700.00000 0 25110061.276 4347267.281 1333674.467 10 0 60890 30600.00000 0 24774759.062 4117377.712 4538529.966 10 0 60890 31500.00000 0 24035197.873 3895878.694 7655356.920 10 0 60890 32400.00000 0 22907463.920 3738225.779 10623747.630 10 0 60890 33300.00000 0 21420518.061 3695944.629 13386206.981 10 0 60890 34200.00000 0 19615075.732 3814234.981 15889257.641 10 0 60890 35100.00000 0 17542015.393 4129849.125 18084465.225 10 0 60890 36000.00000 0 15260382.040 4669333.860 19929364.558 10 0 60890 36900.00000 0 12835068.755 5447709.515 21388270.251 10 0 60890 37800.00000 0 10334272.148 6467641.362 22432957.121 10 0 60890 38700.00000 0 7826826.408 7719138.299 23043198.492 10 0 60890 39600.00000 0 5379525.439 9179791.985 23207152.890 10 0 60890 40500.00000 0 3054542.657 10815547.373 22921592.350 10 0 60890 41400.00000 0 907053.989 12581973.847 22191968.155 10 0 60890 42300.00000 0 -1016838.753 14425985.526 21032312.569 10 0 60890 43200.00000 0 -2681799.172 16287940.798 19464977.833 10 0 60890 44100.00000 0 -4064492.955 18104035.296 17520216.452 10 0 60890 45000.00000 0 -5154319.067 19808890.045 15235609.616 10 0 60890 45900.00000 0 -5953605.323 21338227.960 12655353.345 10 0 60890 46800.00000 0 -6477260.249 22631527.600 9829414.752 10 0 60890 47700.00000 0 -6751895.673 23634543.329 6812573.484 10 0 60890 48600.00000 0 -6814456.716 24301585.948 3663365.917 10 0 60890 49500.00000 0 -6710416.705 24597467.259 442951.969 10 0 60890 50400.00000 0 -6491613.134 24499025.603 -2786073.630 10 0 60890 51300.00000 0 -6213816.371 23996166.706 -5960902.277 10 0 60890 52200.00000 0 -5934134.530 23092374.384 -9019740.297 10 0 60890 53100.00000 0 -5708365.244 21804668.028 -11903020.741 10 0 60890 54000.00000 0 -5588407.704 20163007.252 -14554573.551 10 0 60890 54900.00000 0 -5619845.959 18209167.637 -16922730.174 10 0 60890 55800.00000 0 -5839807.305 15995134.076 -18961340.020 10 0 60890 56700.00000 0 -6275187.939 13581078.776 -20630678.094 10 0 60890 57600.00000 0 -6941322.319 11033008.642 -21898225.454 10 0 60890 58500.00000 0 -7841153.726 8420180.750 -22739306.832 10 0 60890 59400.00000 0 -8964942.066 5812394.315 -23137572.870 10 0 60890 60300.00000 0 -10290522.024 3277272.575 -23085317.610 10 0 60890 61200.00000 0 -11784101.211 877648.264 -22583625.269 10 0 60890 62100.00000 0 -13401565.004 -1330838.353 -21642343.798 10 0 60890 63000.00000 0 -15090233.278 -3301829.075 -20279886.150 10 0 60890 63900.00000 0 -16790995.063 -4999938.618 -18522863.585 10 0 60890 64800.00000 0 -18440731.207 -6401977.318 -16405558.656 10 0 60890 65700.00000 0 -19974923.004 -7497656.237 -13969248.620 10 0 60890 66600.00000 0 -21330336.871 -8289747.028 -11261393.017 10 0 60890 67500.00000 0 -22447672.062 -8793692.055 -8334701.788 10 0 60890 68400.00000 0 -23274060.086 -9036683.416 -5246102.634 10 0 60890 69300.00000 0 -23765310.810 -9056251.788 -2055628.364 10 0 60890 70200.00000 0 -23887811.137 -8898426.624 1174753.591 10 0 60890 71100.00000 0 -23619996.903 -8615547.041 4382346.270 10 0 60890 72000.00000 0 -22953336.750 -8263817.151 7504939.100 10 0 60890 72900.00000 0 -21892787.367 -7900709.992 10482010.905 10 0 60890 73800.00000 0 -20456701.636 -7582330.145 13255896.840 10 0 60890 74700.00000 0 -18676194.115 -7360846.405 15772897.005 10 0 60890 75600.00000 0 -16593990.743 -7282102.515 17984306.009 10 0 60890 76500.00000 0 -14262810.829 -7383506.106 19847344.525 10 0 60890 77400.00000 0 -11743348.511 -7692284.144 21325975.937 10 0 60890 78300.00000 0 -9101937.001 -8224177.663 22391593.505 10 0 60890 79200.00000 0 -6407991.638 -8982630.357 23023565.954 10 0 60890 80100.00000 0 -3731336.576 -9958505.078 23209631.856 10 0 60890 81000.00000 0 -1139524.412 -11130340.616 22946135.910 10 0 60890 81900.00000 0 1304741.771 -12465138.958 22238102.792 10 0 60890 82800.00000 0 3545978.647 -13919651.385 21099146.995 10 0 60890 83700.00000 0 5537988.272 -15442111.217 19551219.792 10 0 60890 84600.00000 0 7245534.541 -16974342.482 17624197.213 10 0 60890 85500.00000 0 8645561.545 -18454157.930 15355315.720 10 0 60891 0.00000 0 9727903.511 -19817947.325 12788465.325 10 0 60891 900.00000 0 10495457.416 -21003349.313 9973350.917 10 0 60891 1800.00000 0 10963809.605 -21951893.503 6964540.309 10 0 60891 2700.00000 0 11160333.823 -22611504.232 3820411.843 10 0 60891 3600.00000 0 11122796.867 -22938758.269 602024.674 10 0 60891 4500.00000 0 10897531.117 -22900801.112 -2628067.802 10 0 60891 5400.00000 0 10537251.068 -22476839.545 -5807037.925 10 0 60891 6300.00000 0 10098606.497 -21659145.848 -8873012.817 10 0 60891 7200.00000 0 9639576.441 -20453529.520 -11766287.659 10 0 60891 8100.00000 0 9216815.269 -18879254.944 -14430498.519 10 0 60891 9000.00000 0 8883064.342 -16968406.937 -16813730.764 10 0 60891 9900.00000 0 8684740.195 -14764729.702 -18869540.364 10 0 60891 10800.00000 0 8659802.593 -12321987.130 -20557867.304 10 0 60891 11700.00000 0 8835993.914 -9701912.731 -21845822.636 10 0 60891 12600.00000 0 9229525.361 -6971834.950 -22708333.390 10 0 60891 13500.00000 0 9844266.355 -4202077.209 -23128632.617 10 0 60891 14400.00000 0 10671471.941 -1463241.438 -23098585.086 10 0 60891 15300.00000 0 11690060.046 1176511.400 -22618842.463 10 0 60891 16200.00000 0 12867427.025 3654070.381 -21698825.346 10 0 60891 17100.00000 0 14160767.057 5913764.831 -20356532.877 10 0 60891 18000.00000 0 15518839.533 7909436.521 -18618184.138 10 0 60891 18900.00000 0 16884109.676 9606108.434 -16517698.762 10 0 60891 19800.00000 0 18195171.837 10981181.740 -14096027.415 10 0 60891 20700.00000 0 19389352.986 12025112.635 -11400345.702 10 0 60891 21600.00000 0 20405386.397 12741542.727 -8483127.787 10 0 60891 22500.00000 0 21186042.685 13146879.669 -5401118.299 10 0 60891 23400.00000 0 21680607.242 13269347.902 -2214223.194 10 0 60891 24300.00000 0 21847099.809 13147551.601 1015658.327 10 0 60891 25200.00000 0 21654142.987 12828612.302 4225837.672 10 0 60891 26100.00000 0 21082401.424 12365961.336 7354052.699 10 0 60891 27000.00000 0 20125531.635 11816881.354 10339671.851 10 0 60891 27900.00000 0 18790603.049 11239901.394 13124863.364 10 0 60891 28800.00000 0 17097973.021 10692155.606 15655707.238 10 0 60891 29700.00000 0 15080621.268 10226816.775 17883229.175 10 0 60891 30600.00000 0 12782971.496 9890712.260 19764337.422 10 0 60891 31500.00000 0 10259249.040 9722221.945 21262645.487 10 0 60891 32400.00000 0 7571442.167 9749545.791 22349166.051 10 0 60891 33300.00000 0 4786950.733 9989413.070 23002863.820 10 0 60891 34200.00000 0 1976018.424 10446287.035 23211057.592 10 0 60891 35100.00000 0 -790946.526 11112098.297 22969664.480 10 0 60891 36000.00000 0 -3446052.849 11966518.469 22283281.854 10 0 60891 36900.00000 0 -5926500.537 12977763.447 21165105.275 10 0 60891 37800.00000 0 -8176942.778 14103893.846 19636683.438 10 0 60891 38700.00000 0 -10151538.877 15294559.604 17727513.867 10 0 60891 39600.00000 0 -11815613.800 16493117.137 15474485.922 10 0 60891 40500.00000 0 -13146855.941 17639031.731 12921180.461 10 0 60891 41400.00000 0 -14136003.417 18670465.476 10117038.229 10 0 60891 42300.00000 0 -14786990.189 19526942.742 7116411.831 10 0 60891 43200.00000 0 -15116545.650 20151981.309 3977518.585 10 0 60891 44100.00000 0 -15153264.241 20495577.982 761313.917 10 0 60891 45000.00000 0 -14936183.949 20516443.052 -2469693.029 10 0 60891 45900.00000 0 -14512933.529 20183887.981 -5652658.362 10 0 60891 46800.00000 0 -13937526.834 19479284.981 -8725632.699 10 0 60891 47700.00000 0 -13267897.878 18397034.984 -11628775.876 10 0 60891 48600.00000 0 -12563281.620 16945001.313 -14305532.384 10 0 60891 49500.00000 0 -11881552.224 15144388.918 -16703743.531 10 0 60891 50400.00000 0 -11276632.512 13029072.764 -18776673.557 10 0 60891 51300.00000 0 -10796085.336 10644402.358 -20483928.809 10 0 60891 52200.00000 0 -10478989.789 8045531.705 -21792251.385 10 0 60891 53100.00000 0 -10354192.933 5295344.184 -22676171.329 10 0 60891 54000.00000 0 -10439011.582 2462058.918 -23118504.487 10 0 60891 54900.00000 0 -10738439.364 -383381.407 -23110686.385 10 0 60891 55800.00000 0 -11244892.650 -3170032.180 -22652935.818 10 0 60891 56700.00000 0 -11938505.976 -5829664.500 -21754245.326 10 0 60891 57600.00000 0 -12787964.150 -8299365.639 -20432199.160 10 0 60891 58500.00000 0 -13751835.458 -10523914.358 -18712622.752 10 0 60891 59400.00000 0 -14780349.154 -12457832.697 -16629071.007 10 0 60891 60300.00000 0 -15817541.627 -14067029.720 -14222165.883 10 0 60891 61200.00000 0 -16803680.068 -15329969.921 -11538796.714 10 0 60891 62100.00000 0 -17677860.843 -16238319.143 -8631199.381 10 0 60891 63000.00000 0 -18380672.451 -16797042.977 -5555932.842 10 0 60891 63900.00000 0 -18856810.421 -17023955.566 -2372773.544 10 0 60891 64800.00000 0 -19057533.661 -16948739.953 856450.232 10 0 60891 65700.00000 0 -18942858.732 -16611483.194 4069060.946 10 0 60891 66600.00000 0 -18483399.722 -16060789.660 7202747.573 10 0 60891 67500.00000 0 -17661776.563 -15351553.436 10196770.829 10 0 60891 68400.00000 0 -16473532.880 -14542484.622 12993134.599 10 0 60891 69300.00000 0 -14927525.112 -13693494.239 15537701.220 10 0 60891 70200.00000 0 -13045766.748 -12863047.859 17781229.725 10 0 60891 71100.00000 0 -10862734.073 -12105598.887 19680317.892 10 0 60891 72000.00000 0 -8424162.055 -11469208.696 21198230.984 10 0 60891 72900.00000 0 -5785379.785 -10993452.625 22305602.348 10 0 60891 73800.00000 0 -3009253.632 -10707698.794 22980993.534 10 0 60891 74700.00000 0 -163822.118 -10629831.065 23211304.036 10 0 60891 75600.00000 0 2680280.980 -10765469.135 22992023.482 10 0 60891 76500.00000 0 5452510.370 -11107718.247 22327321.699 10 0 60891 77400.00000 0 8085090.325 -11637459.263 21229974.776 10 0 60891 78300.00000 0 10515583.715 -12324167.612 19721128.000 10 0 60891 79200.00000 0 12689243.871 -13127227.821 17829899.283 10 0 60891 80100.00000 0 14561052.708 -13997689.702 15592829.480 10 0 60891 81000.00000 0 16097361.055 -14880393.778 13053188.820 10 0 60891 81900.00000 0 17277063.192 -15716377.767 10260151.394 10 0 60891 82800.00000 0 18092256.504 -16445463.739 7267852.421 10 0 60891 83700.00000 0 18548358.389 -17008917.389 4134345.482 10 0 60891 84600.00000 0 18663675.107 -17352067.205 920479.296 10 0 60891 85500.00000 0 18468440.275 -17426772.335 -2311284.407 10 0 60892 0.00000 0 18003363.219 -17193633.818 -5498088.465 10 0 60892 900.00000 0 17317748.007 -16623854.018 -8577910.796 10 0 60892 1800.00000 0 16467263.428 -15700664.197 -11490778.724 10 0 60892 2700.00000 0 15511457.740 -14420257.574 -14179948.107 10 0 60892 3600.00000 0 14511124.502 -12792186.711 -16593018.912 10 0 60892 4500.00000 0 13525631.554 -10839206.622 -18682966.087 10 0 60892 5400.00000 0 12610326.999 -8596568.633 -20409064.448 10 0 60892 6300.00000 0 11814132.729 -6110793.433 -21737688.881 10 0 60892 7200.00000 0 11177427.921 -3437973.909 -22642973.763 10 0 60892 8100.00000 0 10730312.375 -641678.299 -23107318.612 10 0 60892 9000.00000 0 10491323.257 2209458.989 -23121730.124 10 0 60892 9900.00000 0 10466659.325 5044358.350 -22685994.171 10 0 60892 10800.00000 0 10649945.008 7792218.464 -21808674.746 10 0 60892 11700.00000 0 11022543.710 10385228.838 -20506940.284 10 0 60892 12600.00000 0 11554406.322 12761158.499 -18806221.248 10 0 60892 13500.00000 0 12205418.250 14865713.410 -16739706.104 10 0 60892 14400.00000 0 12927187.148 16654564.954 -14347686.032 10 0 60892 15300.00000 0 13665194.940 18094965.886 -11676761.651 10 0 60892 16200.00000 0 14361222.388 19166887.547 -8778927.790 10 0 60892 17100.00000 0 14955943.056 19863632.458 -5710554.669 10 0 60892 18000.00000 0 15391576.516 20191898.462 -2531285.928 10 0 60892 18900.00000 0 15614488.328 20171293.740 697124.500 10 0 60892 19800.00000 0 15577626.857 19833325.033 3912013.594 10 0 60892 20700.00000 0 15242694.048 19219903.444 7051024.828 10 0 60892 21600.00000 0 14581958.803 18381432.205 10053314.387 10 0 60892 22500.00000 0 13579636.776 17374558.018 12860724.742 10 0 60892 23400.00000 0 12232778.784 16259681.277 15418903.183 10 0 60892 24300.00000 0 10551630.619 15098330.064 17678344.333 10 0 60892 25200.00000 0 8559449.095 13950508.005 19595337.399 10 0 60892 26100.00000 0 6291781.593 12872126.689 21132800.914 10 0 60892 27000.00000 0 3795238.505 11912629.399 22260990.030 10 0 60892 27900.00000 0 1125808.545 11112904.630 22958063.868 10 0 60892 28800.00000 0 -1653214.382 10503575.690 23210502.929 10 0 60892 29700.00000 0 -4473608.385 10103737.017 23013369.222 10 0 60892 30600.00000 0 -7264808.127 9920189.427 22370404.423 10 0 60892 31500.00000 0 -9956591.392 9947206.008 21293964.049 10 0 60892 32400.00000 0 -12481758.126 10166838.580 19804788.406 10 0 60892 33300.00000 0 -14778692.380 10549752.386 17931613.758 10 0 60892 34200.00000 0 -16793701.996 11056554.824 15710630.017 10 0 60892 35100.00000 0 -18483039.580 11639563.424 13184794.028 10 0 60892 36000.00000 0 -19814520.971 12244939.752 10403010.251 10 0 60892 36900.00000 0 -20768673.654 12815100.261 7419193.414 10 0 60892 37800.00000 0 -21339366.756 13291302.977 4291230.236 10 0 60892 38700.00000 0 -21533895.663 13616300.988 1079859.634 10 0 60892 39600.00000 0 -21372517.099 13736950.186 -2152507.081 10 0 60892 40500.00000 0 -20887453.643 13606660.135 -5343002.932 10 0 60892 41400.00000 0 -20121409.227 13187583.009 -8429534.740 10 0 60892 42300.00000 0 -19125658.086 12452446.279 -11352000.472 10 0 60892 43200.00000 0 -17957787.989 11385949.738 -14053469.722 10 0 60892 44100.00000 0 -16679193.460 9985665.751 -16481303.217 10 0 60892 45000.00000 0 -15352425.511 8262402.806 -18588188.389 10 0 60892 45900.00000 0 -14038510.577 6240015.248 -20333069.940 10 0 60892 46800.00000 0 -12794352.558 3954665.669 -21681956.561 10 0 60892 47700.00000 0 -11670328.268 1453569.775 -22608587.581 10 0 60892 48600.00000 0 -10708178.147 -1206724.500 -23094946.398 10 0 60892 49500.00000 0 -9939281.275 -3962452.153 -23131610.703 10 0 60892 50400.00000 0 -9383387.248 -6745052.386 -22717932.892 10 0 60892 51300.00000 0 -9047857.832 -9483795.035 -21862047.485 10 0 60892 52200.00000 0 -8927449.536 -12108502.665 -20580705.839 10 0 60892 53100.00000 0 -9004645.243 -14552254.838 -18898941.870 10 0 60892 54000.00000 0 -9250519.680 -16753962.052 -16849575.759 10 0 60892 54900.00000 0 -9626100.932 -18660702.379 -14472565.826 10 0 60892 55800.00000 0 -10084169.217 -20229723.947 -11814221.750 10 0 60892 56700.00000 0 -10571415.734 -21430030.596 -8926294.981 10 0 60892 57600.00000 0 -11030869.273 -22243485.675 -5864964.624 10 0 60892 58500.00000 0 -11404487.139 -22665389.289 -2689739.128 10 0 60892 59400.00000 0 -11635800.181 -22704506.524 537704.294 10 0 60892 60300.00000 0 -11672499.717 -22382547.252 3754719.511 10 0 60892 61200.00000 0 -11468856.847 -21733121.117 6898906.862 10 0 60892 62100.00000 0 -10987872.029 -20800213.174 9909320.357 10 0 60892 63000.00000 0 -10203064.386 -19636245.487 12727643.380 10 0 60892 63900.00000 0 -9099825.543 -18299806.975 15299310.435 10 0 60892 64800.00000 0 -7676281.212 -16853147.263 17574553.869 10 0 60892 65700.00000 0 -5943624.282 -15359539.541 19509356.273 10 0 60892 66600.00000 0 -3925905.164 -13880622.535 21066291.154 10 0 60892 67500.00000 0 -1659287.514 -12473831.931 22215236.881 10 0 60892 68400.00000 0 809200.648 -11190027.621 22933951.245 10 0 60892 69300.00000 0 3423369.778 -10071414.690 23208496.512 10 0 60892 70200.00000 0 6119956.458 -9149843.796 23033507.505 10 0 60892 71100.00000 0 8831011.081 -8445560.896 22412297.872 10 0 60892 72000.00000 0 11486488.393 -7966457.824 21356802.390 10 0 60892 72900.00000 0 14016935.304 -7707854.643 19887355.919 10 0 60892 73800.00000 0 16356166.122 -7652822.907 18032312.326 10 0 60892 74700.00000 0 18443815.401 -7773036.603 15827509.534 10 0 60892 75600.00000 0 20227663.190 -8030115.737 13315589.623 10 0 60892 76500.00000 0 21665636.309 -8377406.801 10545185.676 10 0 60892 77400.00000 0 22727402.125 -8762125.936 7569989.809 10 0 60892 78300.00000 0 23395487.860 -9127774.970 4447719.366 10 0 60892 79200.00000 0 23665877.853 -9416728.549 1239000.610 10 0 60892 80100.00000 0 23548062.914 -9572882.800 -1993808.695 10 0 60892 81000.00000 0 23064538.857 -9544252.801 -5187834.772 10 0 60892 81900.00000 0 22249774.635 -9285407.784 -8280917.271 10 0 60892 82800.00000 0 21148693.041 -8759639.425 -11212827.799 10 0 60892 83700.00000 0 19814727.914 -7940769.633 -13926452.813 10 0 60892 84600.00000 0 18307539.839 -6814519.386 -16368916.687 10 0 60892 85500.00000 0 16690487.139 -5379378.762 -18492621.954 10 0 60893 0.00000 0 15027959.488 -3646939.717 -20256185.370 10 0 60893 900.00000 0 13382686.288 -1641674.907 -21625251.714 10 0 60893 1800.00000 0 11813136.039 599827.148 -22573166.703 10 0 60893 2700.00000 0 10371113.631 3030142.618 -23081498.837 10 0 60893 3600.00000 0 9099659.061 5592753.460 -23140397.613 10 0 60893 4500.00000 0 8031334.902 8224177.509 -22748782.326 10 0 60893 5400.00000 0 7186974.159 10856398.607 -21914357.962 10 0 60893 6300.00000 0 6574940.253 13419495.369 -20653458.300 10 0 60893 7200.00000 0 6190929.120 15844358.835 -18990719.763 10 0 60893 8100.00000 0 6018320.239 18065385.660 -16958592.867 10 0 60893 9000.00000 0 6029060.252 20023034.601 -14596701.272 10 0 60893 9900.00000 0 6185040.253 21666139.878 -11951061.495 10 0 60893 10800.00000 0 6439907.009 22953885.357 -9073178.993 10 0 60893 11700.00000 0 6741230.177 23857357.887 -6019038.790 10 0 60893 12600.00000 0 7032932.641 24360615.883 -2848010.882 10 0 60893 13500.00000 0 7257880.226 24461229.795 378307.713 10 0 60893 14400.00000 0 7360520.585 24170273.291 3597291.328 10 0 60893 15300.00000 0 7289459.241 23511767.107 6746500.735 10 0 60893 16200.00000 0 6999863.790 22521600.377 9764891.222 10 0 60893 17100.00000 0 6455594.794 21245975.967 12593990.337 10 0 60893 18000.00000 0 5630973.653 19739446.000 15179022.759 10 0 60893 18900.00000 0 4512113.178 18062620.452 17469961.214 10 0 60893 19800.00000 0 3097754.984 16279644.913 19422483.955 10 0 60893 20700.00000 0 1399578.416 14455552.668 20998821.377 10 0 60893 21600.00000 0 -558032.428 12653601.041 22168476.576 10 0 60893 22500.00000 0 -2738754.676 10932702.108 22908807.103 10 0 60893 23400.00000 0 -5095594.928 9345053.704 23205457.630 10 0 60893 24300.00000 0 -7572608.522 7934068.139 23052635.955 10 0 60893 25200.00000 0 -10107000.162 6732683.664 22453227.349 10 0 60893 26100.00000 0 -12631520.516 5762128.047 21418744.961 10 0 60893 27000.00000 0 -15077061.227 5031185.018 19969116.785 10 0 60893 27900.00000 0 -17375342.289 4535993.796 18132312.348 10 0 60893 28800.00000 0 -19461581.555 4260389.993 15943815.164 10 0 60893 29700.00000 0 -21277036.359 4176773.857 13445949.720 10 0 60893 30600.00000 0 -22771311.953 4247469.822 10687074.587 10 0 60893 31500.00000 0 -23904340.454 4426520.740 7720655.931 10 0 60893 32400.00000 0 -24647947.228 4661841.667 4604238.291 10 0 60893 33300.00000 0 -24986938.343 4897642.547 1398331.841 10 0 60893 34200.00000 0 -24919662.461 5077017.348 -1834762.556 10 0 60893 35100.00000 0 -24458022.521 5144589.616 -5032167.560 10 0 60893 36000.00000 0 -23626935.654 5049101.521 -8131658.713 10 0 60893 36900.00000 0 -22463263.260 4745835.418 -11072884.138 10 0 60893 37800.00000 0 -21014255.771 4198763.718 -13798549.782 10 0 60893 38700.00000 0 -19335577.367 3382334.216 -16255546.008 10 0 60893 39600.00000 0 -17488994.006 2282813.408 -18395992.417 10 0 60893 40500.00000 0 -15539822.409 899129.146 -20178179.636 10 0 60893 41400.00000 0 -13554247.886 -756824.671 -21567388.959 10 0 60893 42300.00000 0 -11596624.317 -2660435.715 -22536573.370 10 0 60893 43200.00000 0 -9726870.185 -4775163.962 -23066886.498 10 0 60893 44100.00000 0 -7998070.202 -7053843.271 -23148049.176 10 0 60893 45000.00000 0 -6454383.148 -9440439.792 -22778546.675 10 0 60893 45900.00000 0 -5129343.225 -11872193.956 -21965653.133 10 0 60893 46800.00000 0 -4044625.362 -14282056.547 -20725283.098 10 0 60893 47700.00000 0 -3209325.099 -16601317.005 -19081673.573 10 0 60893 48600.00000 0 -2619781.743 -18762314.065 -17066903.269 10 0 60893 49500.00000 0 -2259950.452 -20701115.459 -14720258.904 10 0 60893 50400.00000 0 -2102305.704 -22360054.722 -12087461.461 10 0 60893 51300.00000 0 -2109236.139 -23690019.320 -9219768.005 10 0 60893 52200.00000 0 -2234870.114 -24652394.860 -6172967.100 10 0 60893 53100.00000 0 -2427253.258 -25220584.704 -3006287.966 10 0 60893 54000.00000 0 -2630784.630 -25381042.330 218754.841 10 0 60893 54900.00000 0 -2788807.457 -25133774.333 3439558.315 10 0 60893 55800.00000 0 -2846244.174 -24492294.244 6593645.804 10 0 60893 56700.00000 0 -2752164.044 -23483030.416 9619875.973 10 0 60893 57600.00000 0 -2462174.752 -22144213.947 12459622.572 10 0 60893 58500.00000 0 -1940537.174 -20524294.210 15057902.436 10 0 60893 59400.00000 0 -1161914.372 -18679948.932 17364430.518 10 0 60893 60300.00000 0 -112681.394 -16673772.246 19334582.441 10 0 60893 61200.00000 0 1208259.115 -14571737.123 20930246.983 10 0 60893 62100.00000 0 2789189.927 -12440537.386 22120553.216 10 0 60893 63000.00000 0 4605833.483 -10344919.115 22882459.420 10 0 60893 63900.00000 0 6622137.704 -8345111.294 23201193.366 10 0 60893 64800.00000 0 8791561.965 -6494461.199 23070536.232 10 0 60893 65700.00000 0 11058811.302 -4837371.473 22492945.037 10 0 60893 66600.00000 0 13361948.559 -3407623.425 21479511.190 10 0 60893 67500.00000 0 15634798.525 -2227155.278 20049755.455 10 0 60893 68400.00000 0 17809545.929 -1305345.489 18231262.416 10 0 60893 69300.00000 0 19819420.712 -638830.664 16059160.322 10 0 60893 70200.00000 0 21601359.954 -211865.519 13575454.945 10 0 60893 71100.00000 0 23098536.188 2790.031 10828228.908 10 0 60893 72000.00000 0 24262646.668 42493.579 7870720.657 10 0 60893 72900.00000 0 25055867.541 -47089.623 4760299.808 10 0 60893 73800.00000 0 25452390.302 -214153.005 1557357.992 10 0 60893 74700.00000 0 25439474.940 -403180.044 -1675863.583 10 0 60893 75600.00000 0 25017974.283 -557537.460 -4876486.978 10 0 60893 76500.00000 0 24202306.160 -622119.795 -7982226.709 10 0 60893 77400.00000 0 23019873.369 -545932.244 -10932610.495 10 0 60893 78300.00000 0 21509954.948 -284500.909 -13670166.761 10 0 60893 79200.00000 0 19722114.762 197993.267 -16141554.668 10 0 60893 80100.00000 0 17714194.145 926949.033 -18298613.482 10 0 60893 81000.00000 0 15549973.030 1916024.277 -20099309.911 10 0 60893 81900.00000 0 13296598.161 3166317.883 -21508564.173 10 0 60893 82800.00000 0 11021886.761 4666090.049 -22498938.194 10 0 60893 83700.00000 0 8791619.203 6391034.062 -23051172.284 10 0 60893 84600.00000 0 6666934.401 8305089.120 -23154559.856 10 0 60893 85500.00000 0 4701937.102 10361760.678 -22807153.058 99